Location: Doverdale
(52.2833°N, 2.2000°W)
Time: 11:35:58
(UTC+00:00)

USA 215 - Pass Details

Date: 29 October 2020
Orbit: 1102 x 1106 km, 123.0° (Epoch: 23 November)

Event Time Altitude Azimuth Distance (km) Brightness Sun altitude
Exits shadow 19:57:29 79° 94° (E) 1,125 3.1 -29.8°
Maximum altitude 19:57:55 86° 25° (NNE) 1,111 3.1 -29.9°
Drops below altitude 10° 20:04:29 10° 297° (WNW) 2,967 6.4 -30.8°
Sets 20:06:58 0° 298° (WNW) 3,927 7.3 -31.2°
